Change the Weather History Date:

Friday, December 13, 2013

  Actual Average Record
Temperature  
Mean Temperature 33 °F 39 °F  
Max Temperature 46 °F 48 °F 67 °F (1984)
Min Temperature 19 °F 30 °F -17 °F (1962)
Degree Days  
Heating Degree Days 32 26  
Month to date heating degree days 311 319  
Since 1 July heating degree days 1178 1149  
Cooling Degree Days 0 0  
Month to date cooling degree days 0 0  
Year to date cooling degree days 1083 1190  
Moisture  
Dew Point 16 °F    
Average Humidity 55    
Maximum Humidity 84    
Minimum Humidity 25    
Precipitation  
Precipitation T in 0.14 in 1.86 in (1956)
Month to date precipitation 3.58 1.90  
Year to date precipitation 53.56 44.80  
Sea Level Pressure  
Sea Level Pressure 30.30 in    
Wind  
Wind Speed 2 mph (SSW)    
Max Wind Speed 16 mph    
Max Gust Speed 20 mph    
Visibility 10 miles    
Events      
T = Trace of Precipitation, MM = Missing Value Source: NWS Daily Summary

Daily Weather History Graph

Daily Weather History Graph

Search for Another Location

Airport or City:

Trip Planner

Search our weather history database for the weather conditions in past years. The results will help you decide how hot, cold, wet, or windy it might be!

Date:

Astronomy

Dec. 13, 2013 Rise Set
Actual Time 7:41 AM EST 5:19 PM EST
Civil Twilight 7:12 AM EST 5:48 PM EST
Nautical Twilight 6:39 AM EST 6:21 PM EST
Astronomical Twilight 6:08 AM EST 6:53 PM EST
Moon 2:59 PM EST (12/13) 4:06 AM EST (12/13)
Length of Visible Light 10h 36m
Length of Day
9h 38m
Waxing Gibbous, 88% of the Moon is Illuminated
Dec 13
Waxing Gibbous
Dec 17
Full
Dec 25
Last Quarter
Jan 1
New
Jan 7
First Quarter

Hourly Weather History & Observations

Time (EST) Temp. Windchill Dew Point Humidity Pressure Visibility Wind Dir Wind Speed Gust Speed Precip Events Conditions
12:53 AM 23.0 °F - 16.0 °F 74% 30.42 in 10.0 mi Calm Calm - N/A   Clear
1:53 AM 23.0 °F - 17.1 °F 78% 30.40 in 10.0 mi Calm Calm - N/A   Clear
2:53 AM 21.9 °F - 15.1 °F 75% 30.40 in 10.0 mi Calm Calm - N/A   Clear
3:53 AM 21.9 °F - 15.1 °F 75% 30.38 in 10.0 mi Calm Calm - N/A   Clear
4:53 AM 21.0 °F - 14.0 °F 74% 30.36 in 10.0 mi Calm Calm - N/A   Clear
5:53 AM 19.9 °F - 15.1 °F 81% 30.36 in 10.0 mi Calm Calm - N/A   Clear
6:53 AM 19.9 °F - 14.0 °F 78% 30.36 in 10.0 mi Calm Calm - N/A   Clear
7:53 AM 19.9 °F - 14.0 °F 78% 30.35 in 10.0 mi Calm Calm - N/A   Clear
8:53 AM 24.1 °F - 17.1 °F 75% 30.36 in 10.0 mi Calm Calm - N/A   Clear
9:53 AM 30.0 °F - 16.0 °F 56% 30.37 in 10.0 mi Calm Calm - N/A   Clear
10:53 AM 36.0 °F 32.1 °F 16.0 °F 44% 30.37 in 10.0 mi SSW 4.6 mph - N/A   Clear
11:53 AM 39.0 °F 35.7 °F 14.0 °F 36% 30.34 in 10.0 mi SW 4.6 mph - N/A   Clear
12:53 PM 44.1 °F 38.6 °F 10.0 °F 25% 30.30 in 10.0 mi WSW 10.4 mph - N/A   Clear
1:53 PM 44.1 °F 41.5 °F 10.0 °F 25% 30.28 in 10.0 mi WSW 4.6 mph - N/A   Clear
2:53 PM 45.0 °F - 12.0 °F 26% 30.25 in 10.0 mi Calm Calm - N/A   Clear
3:53 PM 46.0 °F 44.8 °F 15.1 °F 29% 30.25 in 10.0 mi SSW 3.5 mph - N/A   Clear
4:53 PM 44.1 °F - 17.1 °F 34% 30.24 in 10.0 mi Calm Calm - N/A   Clear
5:53 PM 42.1 °F - 17.1 °F 37% 30.22 in 10.0 mi Calm Calm - N/A   Clear
6:53 PM 42.1 °F 40.2 °F 17.1 °F 37% 30.25 in 10.0 mi SE 3.5 mph - N/A   Overcast
7:53 PM 42.1 °F 40.2 °F 18.0 °F 38% 30.25 in 10.0 mi SE 3.5 mph - N/A   Overcast
8:53 PM 41.0 °F 38.0 °F 19.9 °F 43% 30.20 in 10.0 mi Variable 4.6 mph - 0.00 in   Overcast
9:53 PM 42.1 °F 39.2 °F 17.1 °F 37% 30.16 in 10.0 mi Variable 4.6 mph - N/A   Overcast
10:53 PM 39.9 °F 35.1 °F 23.0 °F 51% 30.16 in 10.0 mi Variable 6.9 mph - N/A   Overcast
11:53 PM 39.9 °F - 21.9 °F 49% 30.15 in 10.0 mi Calm Calm - N/A   Overcast